When you browse on this site, cookies collect data to enhance your experience and personalize the content and advertising you see.
Visit our Privacy Policy to learn more. By continuing to use the site, you agree to this use of cookies and data.
  • în România
  • Lista ţărilor
  • Pe 7 zile
  • Temperatura apei
  • Hartă satelitară
  • Meteo pe hartă
  • Widget-uri
  • user-avatar
    Intrare

    Meteo pe oră la Kipungo

    Astăzi, 20 Aprilie, Sâmbătă

    Timp Temperatura Precipitaţii Vânt Presiune Umiditate
    00:00 +20°C° 0 mm 1 m/s 654 mmHg 74%
    01:00 +18°C° 0 mm 0 m/s 654 mmHg 75%
    02:00 +18°C° 0 mm 0 m/s 653 mmHg 77%
    03:00 +17°C° 0 mm 0 m/s 653 mmHg 79%
    04:00 +17°C° 0 mm 0 m/s 653 mmHg 82%
    05:00 +17°C° 0 mm 0 m/s 653 mmHg 81%
    06:00 +18°C° 0 mm 0 m/s 653 mmHg 80%
    07:00 +18°C° 0 mm 0 m/s 654 mmHg 79%
    08:00 +23°C° 0 mm 1 m/s 654 mmHg 69%
    09:00 +26°C° 0 mm 1 m/s 655 mmHg 58%
    10:00 +29°C° 0 mm 2 m/s 656 mmHg 48%
    11:00 +30°C° 0 mm 2 m/s 655 mmHg 43%
    12:00 +32°C° 0 mm 2 m/s 655 mmHg 39%
    13:00 +34°C° 0 mm 2 m/s 655 mmHg 34%
    14:00 +34°C° 0 mm 2 m/s 654 mmHg 35%
    15:00 +32°C° 0 mm 1 m/s 654 mmHg 36%
    16:00 +32°C° 0 mm 1 m/s 653 mmHg 37%
    17:00 +30°C° 0 mm 1 m/s 653 mmHg 44%
    18:00 +27°C° 0 mm 1 m/s 653 mmHg 50%
    19:00 +25°C° 0 mm 1 m/s 653 mmHg 57%
    20:00 +24°C° 1.4 mm 1 m/s 653 mmHg 67%
    21:00 +22°C° 1.4 mm 1 m/s 653 mmHg 78%
    22:00 +20°C° 1.4 mm 1 m/s 653 mmHg 88%
    23:00 +20°C° 0.4 mm 1 m/s 653 mmHg 89%

    Mâine, 21 Aprilie, Duminică

    Timp Temperatura Precipitaţii Vânt Presiune Umiditate
    00:00 +20°C° 0.4 mm 1 m/s 653 mmHg 89%
    01:00 +18°C° 0.4 mm 0 m/s 653 mmHg 89%
    02:00 +17°C° 0.7 mm 0 m/s 653 mmHg 90%
    03:00 +19°C° 0.7 mm 1 m/s 652 mmHg 92%
    04:00 +19°C° 0.7 mm 1 m/s 652 mmHg 93%
    05:00 +19°C° 0 mm 1 m/s 653 mmHg 92%
    06:00 +18°C° 0 mm 0 m/s 653 mmHg 91%
    07:00 +18°C° 0 mm 0 m/s 653 mmHg 89%
    08:00 +22°C° 0 mm 0 m/s 654 mmHg 77%
    09:00 +25°C° 0 mm 0 m/s 655 mmHg 64%
    10:00 +29°C° 0 mm 0 m/s 656 mmHg 51%
    11:00 +31°C° 0 mm 1 m/s 656 mmHg 46%
    12:00 +32°C° 0 mm 1 m/s 655 mmHg 41%
    13:00 +33°C° 0 mm 1 m/s 654 mmHg 36%
    14:00 +32°C° 0 mm 1 m/s 654 mmHg 38%
    15:00 +32°C° 0 mm 1 m/s 653 mmHg 41%
    16:00 +31°C° 0 mm 1 m/s 653 mmHg 43%
    17:00 +27°C° 0 mm 0 m/s 653 mmHg 48%
    18:00 +25°C° 0 mm 0 m/s 652 mmHg 53%
    19:00 +23°C° 0 mm 0 m/s 652 mmHg 58%
    20:00 +22°C° 0.1 mm 0 m/s 653 mmHg 64%
    21:00 +21°C° 0.1 mm 0 m/s 653 mmHg 70%
    22:00 +21°C° 0.1 mm 1 m/s 653 mmHg 76%
    23:00 +21°C° 0 mm 1 m/s 653 mmHg 78%

    Poimâine, 22 Aprilie, Luni

    Timp Temperatura Precipitaţii Vânt Presiune Umiditate
    00:00 +21°C° 0 mm 1 m/s 653 mmHg 81%
    01:00 +20°C° 0 mm 1 m/s 652 mmHg 83%
    02:00 +20°C° 0 mm 1 m/s 652 mmHg 84%
    03:00 +20°C° 0 mm 1 m/s 652 mmHg 85%
    04:00 +19°C° 0 mm 1 m/s 652 mmHg 87%
    05:00 +20°C° 0 mm 1 m/s 652 mmHg 85%
    06:00 +18°C° 0 mm 0 m/s 653 mmHg 84%
    07:00 +19°C° 0 mm 0 m/s 653 mmHg 83%
    08:00 +22°C° 0.1 mm 0 m/s 654 mmHg 72%
    09:00 +25°C° 0.1 mm 0 m/s 655 mmHg 60%
    10:00 +29°C° 0.1 mm 0 m/s 656 mmHg 49%
    11:00 +30°C° 0 mm 0 m/s 655 mmHg 45%
    12:00 +32°C° 0 mm 1 m/s 655 mmHg 41%
    13:00 +33°C° 0 mm 1 m/s 654 mmHg 37%
    14:00 +32°C° 0 mm 1 m/s 654 mmHg 39%
    15:00 +31°C° 0 mm 1 m/s 653 mmHg 42%
    16:00 +30°C° 0 mm 1 m/s 653 mmHg 44%
    17:00 +28°C° 0.3 mm 1 m/s 652 mmHg 55%
    18:00 +25°C° 0.3 mm 1 m/s 652 mmHg 66%
    19:00 +23°C° 0.3 mm 2 m/s 652 mmHg 77%
    20:00 +23°C° 0.2 mm 1 m/s 653 mmHg 79%
    21:00 +22°C° 0.2 mm 1 m/s 653 mmHg 81%
    22:00 +22°C° 0.2 mm 1 m/s 653 mmHg 83%
    23:00 +21°C° 0.2 mm 1 m/s 653 mmHg 86%

    23 Aprilie, Marţi

    Timp Temperatura Precipitaţii Vânt Presiune Umiditate
    00:00 +21°C° 0.2 mm 1 m/s 653 mmHg 88%
    01:00 +18°C° 0.2 mm 0 m/s 652 mmHg 91%
    02:00 +18°C° 0.2 mm 0 m/s 652 mmHg 91%
    03:00 +17°C° 0.2 mm 0 m/s 652 mmHg 91%
    04:00 +17°C° 0.2 mm 0 m/s 651 mmHg 92%
    05:00 +17°C° 0 mm 0 m/s 652 mmHg 91%
    06:00 +18°C° 0 mm 0 m/s 652 mmHg 89%
    07:00 +18°C° 0 mm 0 m/s 653 mmHg 88%
    08:00 +22°C° 0 mm 0 m/s 654 mmHg 76%
    09:00 +25°C° 0 mm 0 m/s 655 mmHg 63%
    10:00 +29°C° 0 mm 0 m/s 656 mmHg 51%
    11:00 +31°C° 0.2 mm 1 m/s 655 mmHg 46%
    12:00 +32°C° 0.2 mm 1 m/s 655 mmHg 42%
    13:00 +32°C° 0.2 mm 1 m/s 654 mmHg 37%
    14:00 +32°C° 0 mm 1 m/s 653 mmHg 39%
    15:00 +31°C° 0 mm 1 m/s 653 mmHg 40%
    16:00 +31°C° 0 mm 1 m/s 653 mmHg 41%
    17:00 +29°C° 0.1 mm 1 m/s 653 mmHg 49%
    18:00 +27°C° 0.1 mm 1 m/s 653 mmHg 57%
    19:00 +25°C° 0.1 mm 1 m/s 653 mmHg 65%
    20:00 +24°C° 0 mm 1 m/s 653 mmHg 67%
    21:00 +24°C° 0 mm 1 m/s 653 mmHg 70%
    22:00 +21°C° 0 mm 0 m/s 654 mmHg 73%
    23:00 +21°C° 0 mm 0 m/s 653 mmHg 76%

    24 Aprilie, Miercuri

    Timp Temperatura Precipitaţii Vânt Presiune Umiditate
    00:00 +20°C° 0 mm 0 m/s 653 mmHg 79%
    01:00 +19°C° 0 mm 0 m/s 653 mmHg 83%
    02:00 +18°C° 0 mm 0 m/s 652 mmHg 84%
    03:00 +18°C° 0 mm 0 m/s 652 mmHg 86%
    04:00 +17°C° 0 mm 0 m/s 652 mmHg 88%
    05:00 +18°C° 0 mm 0 m/s 652 mmHg 86%
    06:00 +18°C° 0 mm 0 m/s 653 mmHg 84%
    07:00 +19°C° 0 mm 0 m/s 653 mmHg 83%
    08:00 +22°C° 0 mm 0 m/s 654 mmHg 71%
    09:00 +27°C° 0 mm 1 m/s 655 mmHg 59%
    10:00 +30°C° 0 mm 1 m/s 656 mmHg 47%
    11:00 +31°C° 0 mm 1 m/s 655 mmHg 43%
    12:00 +32°C° 0 mm 1 m/s 655 mmHg 39%
    13:00 +34°C° 0 mm 1 m/s 654 mmHg 34%
    14:00 +33°C° 0 mm 1 m/s 654 mmHg 34%
    15:00 +33°C° 0 mm 1 m/s 654 mmHg 34%
    16:00 +31°C° 0 mm 0 m/s 653 mmHg 34%
    17:00 +29°C° 0 mm 0 m/s 653 mmHg 40%
    18:00 +29°C° 0 mm 1 m/s 653 mmHg 45%
    19:00 +27°C° 0 mm 1 m/s 653 mmHg 51%
    20:00 +26°C° 0.1 mm 1 m/s 654 mmHg 55%
    21:00 +25°C° 0.1 mm 1 m/s 654 mmHg 60%
    22:00 +22°C° 0.1 mm 0 m/s 654 mmHg 64%
    23:00 +21°C° 0.2 mm 0 m/s 653 mmHg 68%

    25 Aprilie, Joi

    Timp Temperatura Precipitaţii Vânt Presiune Umiditate
    00:00 +20°C° 0.2 mm 0 m/s 653 mmHg 71%
    01:00 +19°C° 0.2 mm 0 m/s 653 mmHg 75%
    02:00 +19°C° 0 mm 0 m/s 653 mmHg 75%
    03:00 +18°C° 0 mm 0 m/s 653 mmHg 76%
    04:00 +18°C° 0 mm 0 m/s 653 mmHg 76%
    05:00 +18°C° 0 mm 0 m/s 653 mmHg 75%
    06:00 +19°C° 0 mm 0 m/s 654 mmHg 75%
    07:00 +19°C° 0 mm 0 m/s 654 mmHg 74%
    08:00 +24°C° 0 mm 1 m/s 655 mmHg 66%
    09:00 +27°C° 0 mm 1 m/s 656 mmHg 57%
    10:00 +30°C° 0 mm 1 m/s 656 mmHg 49%
    11:00 +31°C° 0 mm 2 m/s 656 mmHg 44%
    12:00 +32°C° 0 mm 2 m/s 655 mmHg 39%
    13:00 +34°C° 0 mm 2 m/s 655 mmHg 35%
    14:00 +34°C° 0 mm 2 m/s 654 mmHg 36%
    15:00 +32°C° 0 mm 2 m/s 654 mmHg 38%
    16:00 +32°C° 0 mm 1 m/s 653 mmHg 39%
    17:00 +30°C° 0 mm 1 m/s 653 mmHg 44%
    18:00 +28°C° 0 mm 1 m/s 653 mmHg 50%
    19:00 +26°C° 0 mm 1 m/s 653 mmHg 55%
    20:00 +25°C° 0.1 mm 1 m/s 654 mmHg 61%
    21:00 +24°C° 0.1 mm 1 m/s 654 mmHg 66%
    22:00 +23°C° 0.1 mm 1 m/s 654 mmHg 71%
    23:00 +22°C° 0.3 mm 1 m/s 653 mmHg 76%
    Arată mai mult